Weather History for South Lake Tahoe, CA

Change the Weather History Date:

Sunday, April 20, 2014

  Actual Average Record
Temperature  
Mean Temperature 47 °F 41 °F  
Max Temperature 66 °F 55 °F 73 °F (2009)
Min Temperature 28 °F 27 °F 16 °F (1970)
Degree Days  
Heating Degree Days 18 24  
Month to date heating degree days 404 514  
Since 1 July heating degree days 5804 6666  
Cooling Degree Days 0 0  
Month to date cooling degree days 0 0  
Year to date cooling degree days 0 0  
Moisture  
Dew Point 21 °F    
Average Humidity 39    
Maximum Humidity 69    
Minimum Humidity 9    
Precipitation  
Precipitation 0.00 in - 0.77 in (1963)
Month to date precipitation 0.08  
Year to date precipitation 10.42  
Sea Level Pressure  
Sea Level Pressure 30.17 in    
Wind  
Wind Speed 2 mph (South)    
Max Wind Speed 12 mph    
Max Gust Speed 16 mph    
Visibility 10 miles    
Events      
T = Trace of Precipitation, MM = Missing Value Source: NWS Daily Summary

Daily Weather History Graph

Daily Weather History Graph

Search for Another Location

Airport:

Trip Planner

Search our weather history database for the weather conditions in past years. The results will help you decide how hot, cold, wet, or windy it might be!

Date:

Astronomy

Apr. 20, 2014 Rise Set
Actual Time 6:16 AM PDT 7:42 PM PDT
Civil Twilight 5:48 AM PDT 8:10 PM PDT
Nautical Twilight 5:14 AM PDT 8:43 PM PDT
Astronomical Twilight 4:39 AM PDT 9:19 PM PDT
Moon 12:25 AM PDT (4/20) 10:43 AM PDT (4/20)
Length of Visible Light 14h 21m
Length of Day
13h 25m
Waning Gibbous, 67% of the Moon is Illuminated
Apr 20
Waning Gibbous
Apr 22
Last Quarter
Apr 28
New
May 6
First Quarter
May 14
Full

Hourly Weather History & Observations

Time (PDT) Temp. Windchill Dew Point Humidity Pressure Visibility Wind Dir Wind Speed Gust Speed Precip Events Conditions
12:53 AM 35.1 °F - 19.0 °F 52% 30.14 in 10.0 mi Calm Calm - N/A   Clear
1:53 AM 33.1 °F - 19.9 °F 59% 30.15 in 10.0 mi Calm Calm - N/A   Clear
2:53 AM 30.9 °F - 19.9 °F 64% 30.15 in 10.0 mi Calm Calm - N/A   Clear
3:53 AM 30.0 °F - 19.9 °F 66% 30.15 in 10.0 mi Calm Calm - N/A   Clear
4:53 AM 28.9 °F 23.9 °F 19.9 °F 69% 30.17 in 10.0 mi SSW 4.6 mph - N/A   Clear
5:53 AM 28.9 °F 25.2 °F 19.0 °F 67% 30.18 in 10.0 mi Variable 3.5 mph - N/A   Clear
6:53 AM 28.9 °F - 19.9 °F 69% 30.20 in 10.0 mi Calm Calm - N/A   Clear
7:53 AM 33.1 °F 28.7 °F 21.9 °F 64% 30.23 in 10.0 mi South 4.6 mph - N/A   Clear
8:53 AM 45.0 °F - 21.9 °F 40% 30.20 in 10.0 mi Calm Calm - N/A   Clear
9:53 AM 52.0 °F - 17.1 °F 25% 30.19 in 10.0 mi Variable 3.5 mph - N/A   Clear
10:53 AM 55.9 °F - 21.9 °F 27% 30.19 in 10.0 mi Variable 3.5 mph - N/A   Clear
11:53 AM 59.0 °F - 19.0 °F 21% 30.18 in 10.0 mi NE 9.2 mph - N/A   Clear
12:53 PM 60.1 °F - 23.0 °F 24% 30.17 in 10.0 mi North 6.9 mph - N/A   Clear
1:53 PM 61.0 °F - 23.0 °F 23% 30.17 in 10.0 mi Variable 3.5 mph - N/A   Clear
2:53 PM 63.0 °F - 18.0 °F 18% 30.16 in 10.0 mi Variable 6.9 mph - N/A   Clear
3:53 PM 66.0 °F - 7.0 °F 10% 30.14 in 10.0 mi North - - N/A   Clear
4:53 PM 64.0 °F - 7.0 °F 11% 30.14 in 10.0 mi Calm Calm - N/A   Clear
5:53 PM 63.0 °F - 10.0 °F 13% 30.14 in 10.0 mi North 5.8 mph - N/A   Clear
6:53 PM 57.0 °F - 26.1 °F 30% 30.16 in 10.0 mi Calm Calm - N/A   Clear
7:53 PM 52.0 °F - 30.9 °F 45% 30.17 in 10.0 mi Calm Calm - N/A   Clear
8:53 PM 48.0 °F - 30.9 °F 52% 30.17 in 10.0 mi Calm Calm - N/A   Clear
9:53 PM 45.0 °F 43.5 °F 30.9 °F 58% 30.16 in 10.0 mi SSW 3.5 mph - N/A   Clear
10:53 PM 43.0 °F - 30.9 °F 62% 30.15 in 10.0 mi Calm Calm - N/A   Clear
11:53 PM 41.0 °F 38.0 °F 30.0 °F 65% 30.15 in 10.0 mi South 4.6 mph - N/A   Clear